Location: Unspecified
(40.7945°N, 0.0000°E)
Time: 23:59:31
(UTC+00:00)

AIST 2D - Visible Passes

Search period start: 20 July 2019 00:00
Search period end: 30 July 2019 00:00
Orbit: 456 x 472 km, 97.2° (Epoch: 20 July)

Date Brightness Start Highest point End Pass type
(mag) Time Alt. Az. Time Alt. Az. Time Alt. Az.
20 Jul ? 22:42:59 10° NNE 22:44:46 27° NNE 22:44:46 27° NNE visible
21 Jul ? 22:12:56 10° NE 22:13:53 15° NE 22:13:53 15° NE visible
21 Jul ? 23:46:15 10° NNW 23:47:49 17° NW 23:47:49 17° NW visible
22 Jul ? 23:15:01 10° N 23:16:55 27° NNW 23:16:55 27° NNW visible
23 Jul ? 22:44:22 10° NNE 22:46:01 26° NNE 22:46:01 26° NNE visible
24 Jul ? 22:14:16 10° NE 22:15:07 15° NE 22:15:07 15° NE visible
24 Jul ? 23:47:41 10° NNW 23:49:03 16° NW 23:49:03 16° NW visible
25 Jul ? 23:16:25 10° N 23:18:09 25° NNW 23:18:09 25° NNW visible
26 Jul ? 22:45:44 10° NNE 22:47:14 24° NNE 22:47:14 24° NNE visible
27 Jul ? 22:15:36 10° NE 22:16:20 14° NE 22:16:20 14° NE visible
27 Jul ? 23:49:07 10° NNW 23:50:16 15° NW 23:50:16 15° NW visible
28 Jul ? 23:17:47 10° N 23:19:21 23° NNW 23:19:21 23° NNW visible
29 Jul ? 22:47:06 10° NNE 22:48:26 22° NNE 22:48:26 22° NNE visible
